This is the latest recevied weather packets stored in our database for station/object KD4MBW. If no packets are shown the sender has not sent any weather packets the latest 10 day(s).
| Time | Temp. | Humidity | Pressure | Rain* | Wind** | Luminosity | Snow |
|---|---|---|---|---|---|---|---|
| 1777749519 | 19.44° C | 81% | 1012.9 hPa | 0 mm | - | 210 W/m² | - |
| 1777749217 | 20° C | 81% | 1013.1 hPa | 0 mm | - | 299 W/m² | - |
| 1777748914 | 20.56° C | 80% | 1013.1 hPa | 0 mm | - | 401 W/m² | - |
| 1777748611 | 20° C | 80% | 1013.3 hPa | 0 mm | - | 400 W/m² | - |
| 1777748307 | 19.44° C | 81% | 1012.9 hPa | 0 mm | - | 749 W/m² | - |
| 1777748003 | 19.44° C | 82% | 1012.9 hPa | 0 mm | - | 600 W/m² | - |
| 1777747700 | 19.44° C | 82% | 1012.8 hPa | 0 mm | - | 393 W/m² | - |
| 1777747396 | 19.44° C | 83% | 1012.8 hPa | 0 mm | - | 879 W/m² | - |
| 1777747093 | 18.89° C | 84% | 1012.5 hPa | 0 mm | - | 842 W/m² | - |
| 1777746789 | 18.89° C | 83% | 1013 hPa | 0 mm | - | 522 W/m² | - |
| 1777746484 | 18.33° C | 85% | 1013 hPa | 0 mm | - | 484 W/m² | - |
| 1777746180 | 18.33° C | 85% | 1013.2 hPa | 0 mm | - | 481 W/m² | - |
| 1777745876 | 18.33° C | 85% | 1013.1 hPa | 0 mm | - | 411 W/m² | - |
| 1777745575 | 17.78° C | 85% | 1013 hPa | 0 mm | - | 958 W/m² | - |
| 1777745273 | 17.78° C | 87% | 1013.3 hPa | 0 mm | - | 482 W/m² | - |
| 1777744969 | 17.22° C | 89% | 1013.3 hPa | 0 mm | - | 349 W/m² | - |
| 1777744664 | 17.22° C | 88% | 1013.2 hPa | 0 mm | - | 363 W/m² | - |
| 1777744359 | 17.22° C | 89% | 1013.3 hPa | 0 mm | - | 422 W/m² | - |
| 1777744056 | 16.67° C | 88% | 1013.3 hPa | 0 mm | - | 396 W/m² | - |
| 1777743753 | 16.67° C | 89% | 1013.1 hPa | 0 mm | - | 331 W/m² | - |
| 1777743450 | 16.67° C | 89% | 1013.2 hPa | 0 mm | - | 452 W/m² | - |
| 1777743147 | 16.67° C | 91% | 1013.6 hPa | 0 mm | - | 394 W/m² | - |
| 1777742846 | 16.11° C | 92% | 1013.2 hPa | 0 mm | - | 312 W/m² | - |
| 1777742541 | 15.56° C | 94% | 1013.3 hPa | 0 mm | - | 227 W/m² | - |
| 1777742236 | 15° C | 99% | 1013.4 hPa | 0 mm | - | 337 W/m² | - |
* Rain latest hour (hover to see other rain measurements)
** Current wind speed in m/s (hover to see current wind gust speed)